User: anonymous
Location: Bojarzin Observatory
(39.7980°N, 89.7627°W)
Time: 13:25:40
(UTC-05:00)
Language:

ISS - Orbit

View from above orbital plane
View from above orbital plane
View from above satellite
View from above satellite

Ground track
Ground track

The orbit data is extracted from the following two-line orbital elements,

1 25544U 98067A   14209.56209792  .00002203  00000-0  45894-4 0  7872
2 25544 051.6474 254.5004 0006481 300.8754 210.9048 15.50457425897742
Epoch (UTC): 28 July 2014 13:29:25
Eccentricity: 0.0006481
inclination: 51.6474°
perigee height: 411 km
apogee height: 420 km
right ascension of ascending node: 254.5004°
argument of perigee: 300.8754°
revolutions per day: 15.50457425
mean anomaly at epoch: 210.9048°
orbit number at epoch: 89774

The dashed part of the orbit path shows where the satellite is in the earth's shadow,  

DLR